Location: Maennolsheim
(48.6997°N, 7.4623°E)
Time: 20:46:33
(UTC+00:00)

Daily predictions for brighter satellites

Satellite Brightness Start Highest point End
(mag) Time Altitude Azimuth Time Altitude Azimuth Time Altitude Azimuth
Cosmos 2322 4.2 20:07:07 10° S 20:12:25 40° ESE 20:17:44 10° NE
Cosmos 1745 Rocket 4.0 20:06:40 10° S 20:12:50 79° E 20:19:08 10° NNE
MetOp-B 4.2 20:08:35 10° SSE 20:13:56 81° ENE 20:19:19 10° NNW
Cosmos 2084 4.4 20:10:11 10° NW 20:14:29 44° NE 20:18:44 10° ESE
SL-08 ROCKET BODY 4.4 20:08:46 10° S 20:14:43 81° E 20:20:49 10° N
Cosmos 2263 Rocket 4.3 20:10:32 10° NW 20:14:43 22° WSW 20:18:52 10° SSW
Cosmos 1953 Rocket 4.3 20:14:20 10° SSE 20:18:15 35° E 20:22:12 10° NNE
ATLAS CENTAUR R/B 2.0 20:17:22 10° NNW 20:20:55 40° NE 20:24:22 10° ESE
Cosmos 2237 Rocket 4.1 20:19:21 10° ESE 20:21:13 12° E 20:23:06 10° ENE
Cosmos 2219 Rocket 2.9 20:16:40 10° SSE 20:21:33 32° ESE 20:26:28 10° NE
ERS-1 Rocket 3.6 20:17:23 10° SE 20:22:07 43° ENE 20:26:52 10° N
Gblst 52 Del rocket 4.4 20:16:57 10° WNW 20:22:34 81° NNE 20:28:45 10° ESE
Cosmos 1818 3.6 20:17:31 10° SSW 20:22:56 78° SE 20:28:24 10° NE
USA 215 3.9 20:17:57 10° ENE 20:23:39 31° SE 20:29:18 10° S
Cosmos 2360 Rocket 2.2 20:18:19 10° SSW 20:23:57 85° ESE 20:29:40 10° NNE
Cosmos 2333 4.5 20:18:52 10° S 20:24:14 47° ESE 20:29:42 10° NE
SPOT 5 3.6 20:23:34 10° SE 20:28:14 41° ENE 20:32:41 10° N
Atlas Centaur 2 4.1 20:28:10 10° SSW 20:31:06 14° S 20:34:19 10° SSE
Landsat 7 3.8 20:26:54 10° SSE 20:31:41 83° ENE 20:36:28 10° NNW
Cosmos 1825 Rocket 3.6 20:28:48 10° S 20:33:13 74° E 20:37:41 10° NNE
CZ-2C R/B 4.2 20:29:54 10° N 20:34:56 40° WNW 20:39:50 10° SW
Cosmos 2333 Rocket 2.6 20:29:57 10° S 20:35:18 44° ESE 20:40:42 10° NE
GEOS 3 Rocket 3.8 20:34:10 10° NE 20:39:28 54° SE 20:44:43 10° SSW
SL-16 R/B 4.0 20:39:18 10° WSW 20:44:33 37° NW 20:49:49 10° NNE
Spot 2 Rocket 3.7 20:40:14 10° S 20:45:19 71° WSW 20:50:26 10° NNW
Cosmos 1315 Rocket 3.3 20:42:19 10° N 20:46:19 49° ENE 20:49:46 13° SSE
IGS 5A 3.7 20:42:59 10° S 20:47:07 68° WSW 20:51:17 10° NNW
ATLAS 5 CENTAUR R/B 1.8 20:48:18 10° SW 20:52:28 73° NW 20:57:13 10° NE
CARTOSAT-1 3.6 20:49:41 12° SSE 20:53:38 74° ENE 20:57:58 10° N
Cosmos 2278 Rocket 2.9 20:48:23 10° NNW 20:53:52 46° NE 20:58:50 12° SE
USA 81 4.2 20:49:11 10° S 20:54:22 62° E 20:59:35 10° NNE
Cosmos 1844 Rocket 3.5 20:50:42 10° NW 20:55:59 45° WSW 21:01:14 10° S
USA 267 3.7 20:50:57 10° ESE 20:57:24 63° NNE 21:03:52 10° NW
Cosmos 1709 Rocket 4.1 20:51:29 10° S 20:57:48 87° W 21:04:14 10° N
Meteor 1-11 4.2 20:58:33 10° S 21:04:11 85° E 21:09:56 10° NNE
SPOT 1/Viking Rocket 3.9 21:00:56 10° S 21:06:01 61° WSW 21:11:10 10° NNW
Cosmos-2242 4.1 21:02:57 10° NNW 21:07:03 41° W 21:11:09 10° SSW
Cosmos 1400 Rocket 4.1 21:04:08 10° NNW 21:07:47 35° W 21:11:22 10° SSW
Cosmos 2221 2.9 21:07:55 10° N 21:12:13 52° ENE 21:15:14 18° SSE
Cosmos 2184 Rocket 4.3 21:08:51 14° SSE 21:14:08 52° E 21:20:13 10° NNE
Lacrosse 5 rocket 3.6 21:11:14 10° WNW 21:14:46 25° N 21:18:07 10° NE
Resurs 01 Rocket 4.1 21:12:50 10° SW 21:15:45 17° W 21:18:41 10° NW
SAR-Lupe-2 4.1 21:15:04 10° N 21:18:37 59° WNW 21:22:08 10° SSW
Terra 1.8 21:14:58 17° SSE 21:18:42 83° ENE 21:23:29 10° NNW
TSX-5 3.8 21:24:04 10° NNW 21:27:32 69° ENE 21:30:05 22° SE
NOSS 3-4 (A) 4.1 21:22:38 10° NW 21:29:28 67° NE 21:36:03 14° SE
NOSS 3-4 (C) 4.1 21:22:44 10° NW 21:29:35 67° NE 21:36:11 14° SE
Cosmos 2058 3.5 21:27:37 21° SSE 21:29:54 41° E 21:33:49 10° NNE
NOSS 3-3 (A) 4.0 21:33:48 10° SW 21:39:42 87° NW 21:46:28 10° NE
NOSS 3-3 (C) 4.0 21:33:53 10° SW 21:39:49 88° NW 21:46:35 10° NE
Cosmos 1825 3.6 21:39:57 20° ESE 21:41:07 23° E 21:44:08 10° NE
Cosmos 2369 Rocket 4.4 21:41:09 10° N 21:44:54 18° NE 21:48:37 10° E
JB-3 4.2 21:42:04 10° NNE 21:45:54 70° ESE 21:48:03 24° S
Cosmos 1980 3.8 21:41:49 16° S 21:46:14 56° ESE 21:51:45 10° NE
Aureole 2 Rocket 4.0 21:45:31 10° N 21:47:40 19° ENE 21:48:50 15° E
Meteor 2-17 Rocket 4.4 21:43:28 17° S 21:48:15 77° E 21:54:19 10° NNE
Cosmos 1076 Rocket 3.6 21:47:32 25° SSE 21:49:53 60° E 21:54:07 10° NNE
Nadezhda 3 Rocket 4.1 21:44:40 10° N 21:51:04 72° E 21:55:18 22° SSE
COSMOS 2455 4.3 21:46:58 10° NNW 21:52:17 31° NE 21:57:36 10° E
COSMOS 2428 3.2 21:48:02 10° SW 21:53:39 63° WNW 21:59:19 10° NNE
Cosmos 2154 Rocket 4.0 21:49:47 20° S 21:54:07 66° E 22:00:18 10° NNE
Cosmos 2151 4.0 21:55:43 24° SE 21:57:19 32° E 22:01:09 10° NNE
ATLAS 2AS CENTAUR R/B 2.9 21:49:47 10° NW 21:57:28 84° NE 22:02:39 20° SE
DELTA 2 R/B (1) 4.3 21:53:55 10° SW 21:58:41 29° S 22:01:15 20° SE
Thor Agena Rocket 3.9 21:54:04 10° NNE 21:58:58 45° E 22:01:29 26° SSE
ATLAS CENTAUR R/B 2.7 21:56:38 10° WNW 21:59:35 23° WSW 22:00:56 18° SSW
Cosmos 2074 Rocket 4.1 21:54:31 13° SSW 22:00:08 75° W 22:06:22 10° N
Cosmos 1869 4.0 21:56:22 10° NNW 22:00:14 48° W 22:02:34 22° SSW
ERS-1 Rocket 4.5 21:56:48 10° SSW 22:01:03 29° W 22:05:26 10° NW
BREEZE-M DEB (TANK) 1.6 21:57:17 10° W 22:02:02 87° N 22:03:23 26° E
Genesis I 3.4 22:00:58 30° S 22:02:33 49° ESE 22:06:19 10° NE
Cosmos 2237 Rocket 2.2 21:59:39 16° SSW 22:04:13 71° ESE 22:09:55 10° NNE
Cosmos 2219 Rocket 3.2 21:59:56 10° SW 22:05:18 48° NW 22:10:46 10° NNE
Cosmos 1371 Rocket 4.1 22:00:32 10° NNW 22:05:49 76° ENE 22:08:51 26° SSE
SPOT 5 4.4 22:02:26 12° SSW 22:06:23 29° W 22:10:34 10° NW
USA 215 3.2 22:00:36 10° NE 22:07:12 88° SE 22:13:46 10° WSW
Spot 4 3.9 22:06:50 27° SSE 22:09:24 67° ENE 22:14:09 10° N
Cosmos 2344 3.7 22:05:02 14° SSW 22:11:22 54° ESE 22:19:06 10° NE
Cosmos 158 Rocket 3.7 22:09:33 23° SSW 22:12:37 76° ESE 22:17:33 10° NNE
Cosmos 1151 Rocket 4.2 22:09:53 10° N 22:13:48 32° ENE 22:15:44 22° ESE
Cosmos 2112 Rocket 4.0 22:12:33 22° SSW 22:16:06 76° ESE 22:21:29 10° NNE
Elektron 1 4.3 22:15:07 22° SW 22:17:10 77° SE 22:22:39 10° NE
CZ-4C R/B 4.1 22:11:56 10° NW 22:18:06 36° NNE 22:25:13 10° E
Cosmos 2333 Rocket 3.7 22:14:23 10° WSW 22:19:40 38° NW 22:25:00 10° NNE
ALOS 2 3.3 22:18:57 25° SE 22:21:02 44° ENE 22:25:14 10° N
Iridium 2 3.7 22:20:32 10° N 22:24:22 77° W 22:25:48 37° S
EO 1 Del DPAF 3.1 22:24:54 10° NNE 22:28:41 74° ESE 22:29:55 40° S
Cosmos 1892 3.7 22:26:26 20° SW 22:28:41 42° WNW 22:32:20 10° N
NOSS 0 Rocket 4.2 22:23:21 10° SW 22:29:28 68° WNW 22:35:40 10° NNE
Cosmos 2056 Rocket 3.6 22:24:13 10° NNW 22:29:40 82° WSW 22:32:26 30° SSE
GP-B 3.6 22:27:08 10° NNE 22:31:26 46° E 22:33:05 31° SE
Cosmos 1295 Rocket 4.5 22:29:34 23° SSW 22:33:38 82° W 22:39:47 10° N
Cosmos 1606 2.9 22:32:19 10° N 22:36:12 62° ENE 22:37:25 39° SE
Cosmos 2278 Rocket 3.3 22:32:46 10° NW 22:37:49 34° WSW 22:40:40 21° SSW
ATLAS 5 CENTAUR R/B 4.5 22:34:33 10° WNW 22:38:00 21° NNW 22:41:50 10° NNE
Cosmos 1408 3.2 22:37:57 28° SW 22:39:28 48° WNW 22:42:57 10° N
USA 267 3.4 22:36:39 26° SSE 22:40:28 58° SW 22:46:58 10° WNW
Cosmos 2297 3.7 22:34:58 10° NNW 22:40:46 84° ENE 22:43:51 29° SSE
Cosmos 1943 Rocket 3.0 22:36:00 10° NNW 22:41:30 46° NE 22:45:29 18° ESE
Cosmos 44 3.1 22:40:50 38° S 22:42:07 53° ESE 22:46:27 10° NE
MOS 1-B Rocket 4.4 22:34:22 10° NNE 22:42:10 87° ESE 22:46:38 23° SSW
Gbstr 26 Del rocket 4.1 22:44:20 23° ESE 22:44:20 23° ESE 22:46:33 10° E
Cosmos 1680 Rocket 4.0 22:39:45 14° SW 22:44:14 58° WNW 22:49:31 10° NNE
Cosmos 371 Rocket 3.4 22:44:16 10° NNW 22:49:09 73° ENE 22:51:21 32° SE
SL-16 R/B 2.3 22:46:35 30° S 22:49:19 61° ESE 22:54:55 10° NNE
IRIDIUM 104 4.4 22:49:58 33° SSE 22:52:18 68° E 22:57:30 10° N
APEX 3.0 22:50:58 10° NNW 22:53:37 45° ENE 22:53:52 44° ENE
CREW DRAGON DEMO-1 DEB 2.6 22:53:16 58° WSW 22:53:47 86° SSE 22:56:52 10° ENE
Lacrosse 5 rocket 2.6 22:50:56 10° NW 22:54:46 38° NNE 22:58:22 10° E
Cosmos 405 4.4 22:52:00 10° N 22:55:09 29° ENE 22:56:11 25° ESE
Cosmos 1452 Rocket 3.7 22:51:21 10° NNW 22:56:37 66° ENE 22:59:20 28° SE
Terra 4.2 22:54:45 10° WSW 22:57:05 13° W 22:59:24 10° WNW
Cosmos 1515 Rocket 4.0 22:54:14 10° N 22:58:31 52° ENE 23:00:08 33° SE
IRIDIUM 114 4.3 22:59:06 34° S 23:01:27 81° E 23:06:42 10° N
Cosmos 1766 Rocket 3.5 23:01:32 38° SSW 23:03:13 81° W 23:07:39 10° N
Cosmos 1328 Rocket 3.4 23:00:21 10° N 23:04:41 83° W 23:06:06 42° S
Okean 3 Rocket 3.9 23:07:35 32° SSW 23:09:30 62° WNW 23:13:54 10° N
IRIDIUM 103 4.3 23:08:14 34° S 23:10:35 86° W 23:15:52 10° N
Meteor 2-3 Rocket 3.7 23:12:54 33° S 23:15:32 76° E 23:21:16 10° NNE
Cosmos 1340 2.5 23:15:33 52° S 23:16:25 90° NE 23:20:12 10° NNE
Cosmos 1825 3.7 23:14:44 20° WSW 23:16:29 29° WNW 23:19:51 10° N
Cosmos 2228 Rocket 3.7 23:15:03 10° N 23:19:32 49° ENE 23:21:26 30° SE
Cosmos 864 Rocket 4.5 23:16:19 30° S 23:19:38 89° W 23:25:59 10° N
Aureole 2 Rocket 3.8 23:18:53 10° NW 23:20:49 22° W 23:20:49 22° W
Cosmos 2218 Rocket 4.0 23:17:43 29° SSW 23:21:14 81° W 23:27:34 10° N
Cosmos 2366 rocket 4.1 23:21:57 29° SSW 23:25:27 79° W 23:31:51 10° N
Meteor 1-26 Rocket 4.3 23:19:30 10° NNW 23:25:32 78° W 23:28:23 33° S
Cosmos 2369 Rocket 2.3 23:24:20 10° NNW 23:29:58 71° ENE 23:33:18 25° SE
Cosmos 1743 Rocket 3.7 23:29:40 41° SSE 23:30:58 62° E 23:35:15 10° NNE
SL-4 R/B 2.9 23:33:31 20° NW 23:33:31 20° NW 23:34:24 10° NNW
Cosmos 44 Rocket 4.4 23:32:07 24° SE 23:32:46 25° ESE 23:36:39 10° ENE
Cosmos 304 Rocket 3.7 23:28:09 10° NNW 23:33:01 88° ENE 23:35:00 36° SSE
Cosmos 1821 Rocket 4.3 23:30:57 28° SSE 23:33:58 54° E 23:39:54 10° NNE
Cosmos 1933 4.2 23:30:47 10° NNW 23:34:33 39° W 23:35:34 32° SW
YAOGAN 11 4.0 23:33:15 41° SSE 23:34:45 88° WSW 23:39:13 10° NNW
Helios 1A 2.9 23:34:08 45° S 23:35:18 70° WSW 23:39:27 10° NNW
COSMOS 2455 2.8 23:32:43 10° NW 23:38:46 71° WSW 23:41:47 31° SSE
Cosmos 1656 Rocket 4.4 23:34:47 10° NNW 23:40:02 46° NE 23:44:30 14° SE
ATLAS 2AS CENTAUR R/B 3.9 23:41:46 10° WNW 23:47:34 26° WSW 23:50:03 21° SW
Cosmos 2237 Rocket 4.1 23:44:07 10° W 23:48:51 26° NW 23:53:36 10° NNE
USA 215 4.2 23:43:40 10° ENE 23:49:57 50° NNW 23:56:12 10° W
Cosmos 1812 3.6 23:46:18 10° N 23:50:00 42° ENE 23:51:25 29° SE
Cosmos 1151 Rocket 4.4 23:47:37 10° NNW 23:51:16 27° W 23:52:34 23° WSW
CRYOSAT 2 4.5 23:46:57 10° N 23:51:48 66° E 23:53:46 35° SSE
Cosmos 1782 3.0 23:48:16 10° NNW 23:52:09 57° W 23:53:04 44° SW
Cosmos 1408 Rocket 4.4 23:52:07 28° SW 23:53:55 42° WNW 23:58:08 10° N
CZ-2D R/B 4.2 23:50:48 10° NE 23:54:07 17° E 23:57:20 10° SE
